Regional Weather Roundup
Issued by NWS Spokane, WA

Home | Current Version | Previous Version | Text Only | Print | Product List | Glossary On
Versions: 1 2 3 4 5 6 7 8 9 10 11 12 13 14 15 16 17 18 19 20 21 22 23 24 25 26 27 28 29 30 31 32 33 34 35 36 37 38 39 40 41 42 43 44 45 46 47 48 49 50
697
NZUS01 KOTX 200725
RWROTX

Eastern Washington/Northern Idaho Roundup
National Weather Service, Spokane WA
1100 PM PST THU JAN 19 2017

Note: "fair" indicated few or no clouds below 12,000 feet with no
significant weather and/or obstructions to visibility.

...Northeast Washington and Northern Idaho Panhandle...

CITY           SKY/WX    TMP DP  RH WIND       PRES   REMARKS
Spokane Intl   PTCLDY    33  29  85 SE8       29.54F WCI  26
Spokane Downto CLEAR     31  30  96 NE5       29.57S WCI  26
Coeur d Alene  CLOUDY    29  29 100 NE5       29.56F WCI  24
Deer Park      FOG       26  23  88 CALM      29.56S VSB 1
Sandpoint      MOCLDY    32  32 100 CALM      29.57S FOG
Bonners Ferry  CLOUDY    36  32  87 CALM      29.55F

...Southeast Washington and southern Idaho Panhandle...

CITY           SKY/WX    TMP DP  RH WIND       PRES   REMARKS
Walla Walla    CLOUDY    41  30  65 CALM      29.51F
Pullman/Moscow MOCLDY    34  31  88 E14       29.57F WCI  25
Lewiston       CLOUDY    37  33  85 E7        29.59S
Lowell           N/A     33  31  92 CALM      29.65F
Grangeville    CLOUDY    32  32 100 E9G16     29.55F VSB 1/4 WCI  24

...Columbia Basin...

CITY           SKY/WX    TMP DP  RH WIND       PRES   REMARKS
Ephrata        CLOUDY    33  29  85 NE7       29.53F FOG     WCI  27
Moses Lake     FOG       27  24  89 CALM      29.54F VSB 1/4
Pasco          MOCLDY    20  20 100 W5        29.56F FOG     WCI  13
Richland       FOG       25  25  99 W5        29.57S VSB 1/4 WCI  19
Hermiston      FOG       23  21  92 S5        29.52F VSB<1/4 WCI  17
Pendleton      PTCLDY    39  31  72 E8        29.50F

...East Slopes Cascades...

CITY           SKY/WX    TMP DP  RH WIND       PRES   REMARKS
The Dalles     FOG       28  27  96 E3        29.54F VSB 1/4
Yakima         FOG       32  31  96 NW5       29.52F VSB 1/4 WCI  27
Ellensburg     FOG       33  31  92 CALM      29.51F VSB 1/4
Stampede Pass  FOG       30  29  96 CALM      29.41F VSB 1/2
Wenatchee      CLOUDY    31  28  89 NW3       29.54F
Omak           CLOUDY    33  31  92 CALM      29.55S FOG
Sunnyside      FOG       16  14  93 CALM      29.54R VSB 3/4

...Southern British Columbia...

CITY           SKY/WX    TMP DP  RH WIND       PRES   REMARKS
Penticton      LGT RAIN  37  34  87 S13G18    29.51S
Cranbrook      MOCLDY    36  28  75 SE10      29.50S
Osoyoos          N/A     36  34  93 S6          N/A
Creston          N/A     37  34  87 SE3         N/A

...Western Montana...

CITY           SKY/WX    TMP DP  RH WIND       PRES   REMARKS
Kalispell      FOG       23  22  96 CALM      29.55F VSB 1/4
Missoula       FOG       31  31 100 CALM      29.59S VSB 1/4

...Neighboring Cities...

CITY           SKY/WX    TMP DP  RH WIND       PRES   REMARKS
Seattle        MOCLDY    44  37  76 SE6       29.45F
Portland       CLOUDY    37  35  92 E12       29.44F
Boise          CLOUDY    35  31  85 SE8       29.62F WCI  29
Great Falls    CLOUDY    36  27  69 SW14      29.47F
Calgary        MOCLDY    28  18  64 VRB2      29.32R



USA.gov is the U.S. government's official web portal to all federal, state and local government web resources and services.